Volver al catálogo

STARLINK-32587

ActivoComunicacionesVLEO
NORAD 62180·PAYLOAD·🇺🇸 United States

Lanzado Nov 30, 2024 desde Vandenberg Space Force Base

Loading…

Próximos Pases (próximas 24 horas)

TLE

ActualizadoSource: CelesTrak SupGP

Época: Sep 14, 2026, 22:21 UTC

1 62180C 24225T   26257.93173611 -.00005357  00000+0 -44897-3 0  2578
2 62180  70.0013  47.1240 0003141 274.1121  99.9697 14.98331626    18

Sigue STARLINK-32587 en tiempo real con AllMySat

Download on the App Store